Flag for U.S.A. Weather past 2 weeks in Nashville, Tennessee, U.S.A.

Now
70 °F

Clear.


Feels Like: 69 °F
Forecast: 68 / 89 °F
Wind: No wind

Location: Nashville International Airport

Current Time: Sep 1, 2015 at 3:33:59 AM

Latest Report: Sep 1, 2015 at 2:53 AM


Visibility: 10 mi

Pressure: 30.09 "Hg

Humidity: 84%

Dew point: 65 °F

Location of NashvilleLocation

Historic Weather in Nashville — Graph

°F

Nashville temperature yesterday

Maximum temperature yesterday: 88 °F (at 3:53 PM)
Minimum temperature yesterday: 66 °F (at 4:53 AM)
Average temperature yesterday: 77 °F

Past Weeks' High & Low Weather Summary

 TemperatureHumidityPressure
High90 °F (Aug 23, 2:53 PM)91% (Aug 17, 4:53 AM)30.16 "Hg (Aug 17, 4:53 AM)
Low58 °F (Aug 25, 4:53 AM)28% (Aug 25, 2:53 PM)29.82 "Hg (Aug 19, 2:53 PM)
Average75 °F67%30.03 "Hg
* Reported Aug 17 1:53 AM — Sep 1 1:53 AM, Nashville, Weather by CustomWeather, © 2015

Note: Actual official high and low records may vary slightly from our data, if they occured in-between our weather recording intervals... More about our weather records

Advertising

Nashville weather history for previous 24 hours

 ConditionsComfort  
Time TempWeatherWind HumidityBarometerVisibility
1:53 AM
Tue, Sep 1
71 °FClear.No wind81%30.08 "Hg10 mi
12:53 AM72 °FClear.No wind81%30.09 "Hg10 mi
11:53 PM
Mon, Aug 31
72 °FClear.No wind81%30.09 "Hg10 mi
9:53 PM74 °FPassing clouds.3 mph74%30.09 "Hg10 mi
8:53 PM80 °FPassing clouds.3 mph56%30.08 "Hg10 mi
7:53 PM79 °FPassing clouds.No wind58%30.06 "Hg10 mi
6:53 PM83 °FPassing clouds.5 mph46%30.05 "Hg10 mi
5:53 PM87 °FPassing clouds.5 mph40%30.06 "Hg10 mi
4:53 PM86 °FPassing clouds.No wind43%30.06 "Hg10 mi
3:53 PM88 °FScattered clouds.3 mph42%30.06 "Hg10 mi
2:53 PM86 °FPartly sunny.5 mph45%30.08 "Hg10 mi
1:53 PM86 °FScattered clouds.5 mph46%30.10 "Hg10 mi
12:53 PM84 °FScattered clouds.6 mph49%30.12 "Hg10 mi
11:53 AM81 °FScattered clouds.5 mph53%30.14 "Hg10 mi
10:53 AM79 °FBroken clouds.No wind60%30.14 "Hg10 mi
9:53 AM78 °FScattered clouds.3 mph64%30.14 "Hg10 mi
8:53 AM73 °FScattered clouds.No wind79%30.14 "Hg9 mi
7:53 AM71 °FScattered clouds.3 mph78%30.13 "Hg9 mi
6:53 AM67 °FScattered clouds.No wind87%30.11 "Hg7 mi
5:53 AM66 °FClear.No wind87%30.09 "Hg10 mi
4:53 AM66 °FClear.No wind90%30.08 "Hg8 mi
3:53 AM67 °FClear.3 mph90%30.06 "Hg8 mi
Weather by CustomWeather, © 2015

See weather overviewHow to use our weather pages